Terminal Aerodrome Forecast
Issued by NWS Milwaukee/Sullivan, WI

Home | Current Version | Previous Version | Text Only | Print | Product List | Glossary On
Versions: 1 2 3 4 5 6 7 8 9 10 11 12 13 14 15 16 17 18 19 20 21 22 23 24 25 26 27 28 29 30 31 32 33 34 35 36 37 38 39 40 41 42 43 44
000
FTUS43 KMKX 300230 AAA
TAFMSN
TAF AMD
KMSN 300230Z 3003/3024 18010KT P6SM VCTS SCT035 BKN080CB
      TEMPO 3004/3006 5SM TSRA BKN035CB
     FM300600 19008KT P6SM VCTS SCT025 OVC035CB
      TEMPO 3006/3009 4SM TSRA BKN025CB
     FM301000 21005KT 2SM TSRA BR SCT008 OVC015CB
     FM301400 24006KT 5SM -SHRA OVC012
     FM301700 24007KT P6SM BKN020=

USA.gov is the U.S. government's official web portal to all federal, state and local government web resources and services.